TimeEDT,TemperatureF,Dew PointF,Humidity,Sea Level PressureIn,VisibilityMPH,Wind Direction,Wind SpeedMPH,Gust SpeedMPH,PrecipitationIn,Events,Conditions,WindDirDegrees,DateUTC
12:14 AM,62.8,61.3,95,29.93,10.0,Calm,Calm,-,N/A,,Clear,0,2013-06-17 04:14:00
12:34 AM,62.6,61.3,96,29.94,10.0,Calm,Calm,-,N/A,,Clear,0,2013-06-17 04:34:00
12:54 AM,62.6,61.2,95,29.94,10.0,Calm,Calm,-,N/A,,Clear,0,2013-06-17 04:54:00
1:14 AM,62.1,60.6,95,29.94,10.0,Calm,Calm,-,N/A,,Clear,0,2013-06-17 05:14:00
1:34 AM,62.8,61.7,96,29.94,10.0,Calm,Calm,-,N/A,,Scattered Clouds,0,2013-06-17 05:34:00
1:54 AM,63.5,61.5,93,29.92,10.0,Calm,Calm,-,N/A,,Scattered Clouds,0,2013-06-17 05:54:00
2:14 AM,63.0,60.8,93,29.92,10.0,Calm,Calm,-,N/A,,Scattered Clouds,0,2013-06-17 06:14:00
2:34 AM,60.8,59.2,94,29.92,10.0,Calm,Calm,-,N/A,,Clear,0,2013-06-17 06:34:00
2:54 AM,61.3,60.1,96,29.92,10.0,Calm,Calm,-,N/A,,Clear,0,2013-06-17 06:54:00
3:14 AM,61.7,59.9,94,29.92,10.0,Calm,Calm,-,N/A,,Clear,0,2013-06-17 07:14:00
3:34 AM,61.5,60.3,96,29.92,10.0,Calm,Calm,-,N/A,,Clear,0,2013-06-17 07:34:00
3:54 AM,61.9,60.8,96,29.92,10.0,Calm,Calm,-,N/A,,Clear,0,2013-06-17 07:54:00
4:14 AM,60.8,59.5,96,29.91,10.0,South,3.5,-,N/A,,Clear,190,2013-06-17 08:14:00
4:34 AM,61.0,59.7,96,29.91,10.0,SSW,4.6,-,N/A,,Clear,200,2013-06-17 08:34:00
4:54 AM,60.6,59.7,97,29.92,10.0,South,4.6,-,N/A,,Clear,190,2013-06-17 08:54:00
5:14 AM,60.4,59.5,97,29.93,10.0,SSW,3.5,-,N/A,,Clear,200,2013-06-17 09:14:00
5:34 AM,60.4,59.9,98,29.93,10.0,WSW,4.6,-,N/A,,Clear,240,2013-06-17 09:34:00
5:53 AM,61.0,60.4,98,29.93,7.0,Calm,Calm,-,N/A,,Clear,0,2013-06-17 09:53:00
6:14 AM,60.6,60.4,99,29.93,4.0,Calm,Calm,-,N/A,,Clear,0,2013-06-17 10:14:00
6:34 AM,59.9,59.4,98,29.93,5.0,Calm,Calm,-,N/A,,Clear,0,2013-06-17 10:34:00
6:54 AM,61.2,61.0,99,29.93,1.8,Calm,Calm,-,N/A,,Mist,0,2013-06-17 10:54:00
7:14 AM,62.4,62.4,100,29.93,2.5,Calm,Calm,-,N/A,,Clear,0,2013-06-17 11:14:00
7:33 AM,63.5,63.5,100,29.94,3.0,Calm,Calm,-,N/A,,Scattered Clouds,0,2013-06-17 11:33:00
7:54 AM,64.8,64.4,99,29.94,4.0,Calm,Calm,-,N/A,,Scattered Clouds,0,2013-06-17 11:54:00
8:14 AM,66.0,65.3,98,29.94,5.0,Calm,Calm,-,N/A,,Clear,0,2013-06-17 12:14:00
8:34 AM,67.5,66.2,96,29.94,5.0,Calm,Calm,-,N/A,,Clear,0,2013-06-17 12:34:00
8:54 AM,69.4,67.3,93,29.95,7.0,Calm,Calm,-,N/A,,Clear,0,2013-06-17 12:54:00
9:14 AM,71.4,67.1,86,29.95,7.0,Calm,Calm,-,N/A,,Clear,0,2013-06-17 13:14:00
9:34 AM,72.1,66.9,84,29.95,10.0,Calm,Calm,-,N/A,,Clear,0,2013-06-17 13:34:00
9:54 AM,74.5,67.8,80,29.95,10.0,Calm,Calm,-,N/A,,Clear,0,2013-06-17 13:54:00
10:14 AM,75.4,67.8,77,29.95,10.0,Calm,Calm,-,N/A,,Clear,0,2013-06-17 14:14:00
10:34 AM,78.1,67.3,69,29.95,10.0,Calm,Calm,-,N/A,,Clear,0,2013-06-17 14:34:00
10:54 AM,80.4,64.4,58,29.95,10.0,West,4.6,-,N/A,,Clear,280,2013-06-17 14:54:00
11:14 AM,81.5,59.2,47,29.95,10.0,West,5.8,-,N/A,,Clear,260,2013-06-17 15:14:00
11:34 AM,81.9,59.2,46,29.95,10.0,WNW,6.9,-,N/A,,Clear,300,2013-06-17 15:34:00
11:54 AM,82.0,58.8,45,29.94,10.0,West,8.1,-,N/A,,Clear,260,2013-06-17 15:54:00
12:13 PM,82.6,57.4,42,29.94,10.0,WNW,9.2,-,N/A,,Clear,290,2013-06-17 16:13:00
12:34 PM,82.4,57.0,42,29.94,10.0,SW,5.8,-,N/A,,Clear,230,2013-06-17 16:34:00
12:54 PM,83.3,57.0,41,29.93,10.0,West,5.8,-,N/A,,Clear,270,2013-06-17 16:54:00
1:13 PM,83.7,58.1,42,29.93,10.0,WSW,5.8,-,N/A,,Clear,250,2013-06-17 17:13:00
1:34 PM,84.2,57.4,40,29.92,10.0,WNW,6.9,-,N/A,,Clear,300,2013-06-17 17:34:00
1:54 PM,84.6,57.4,39,29.92,10.0,WNW,6.9,-,N/A,,Clear,300,2013-06-17 17:54:00
2:14 PM,84.4,57.9,40,29.92,10.0,WSW,6.9,-,N/A,,Clear,240,2013-06-17 18:14:00
2:34 PM,84.6,58.5,41,29.92,10.0,WNW,11.5,-,N/A,,Clear,300,2013-06-17 18:34:00
2:54 PM,84.2,57.9,41,29.92,10.0,West,8.1,-,N/A,,Clear,260,2013-06-17 18:54:00
3:14 PM,84.2,57.2,40,29.92,10.0,West,10.4,-,N/A,,Clear,280,2013-06-17 19:14:00
3:34 PM,83.8,56.3,39,29.92,10.0,West,11.5,16.1,N/A,,Clear,270,2013-06-17 19:34:00
3:54 PM,84.2,56.5,39,29.91,10.0,WSW,6.9,18.4,N/A,,Clear,240,2013-06-17 19:54:00
4:14 PM,84.6,58.1,40,29.91,10.0,West,8.1,-,N/A,,Clear,260,2013-06-17 20:14:00
4:34 PM,84.2,56.5,39,29.90,10.0,West,11.5,-,N/A,,Clear,260,2013-06-17 20:34:00
4:54 PM,83.5,54.9,37,29.90,10.0,WSW,5.8,-,N/A,,Clear,250,2013-06-17 20:54:00
5:14 PM,84.0,55.8,38,29.89,10.0,West,9.2,-,N/A,,Scattered Clouds,260,2013-06-17 21:14:00
5:34 PM,83.8,56.7,39,29.89,10.0,West,6.9,-,N/A,,Clear,280,2013-06-17 21:34:00
5:53 PM,84.0,58.5,42,29.88,10.0,West,8.1,-,N/A,,Clear,270,2013-06-17 21:53:00
6:14 PM,82.6,57.0,42,29.89,10.0,WNW,11.5,16.1,N/A,,Clear,290,2013-06-17 22:14:00
6:33 PM,-9999,-9999,N/A,29.88,10.0,West,9.2,-,N/A,,Clear,270,2013-06-17 22:33:00
6:54 PM,81.3,60.3,49,29.88,10.0,West,4.6,-,N/A,,Clear,260,2013-06-17 22:54:00
7:14 PM,81.1,57.9,45,29.88,10.0,WSW,3.5,-,N/A,,Clear,250,2013-06-17 23:14:00
7:34 PM,81.5,59.7,47,29.88,10.0,Calm,Calm,-,N/A,,Clear,0,2013-06-17 23:34:00
7:54 PM,80.2,64.8,59,29.88,10.0,Calm,Calm,-,N/A,,Clear,0,2013-06-17 23:54:00
8:14 PM,78.3,61.3,56,29.88,10.0,Calm,Calm,-,N/A,,Scattered Clouds,0,2013-06-18 00:14:00
8:34 PM,78.1,61.3,56,29.89,10.0,WSW,3.5,-,N/A,,Clear,240,2013-06-18 00:34:00
8:54 PM,76.6,62.4,61,29.88,10.0,Calm,Calm,-,N/A,,Clear,0,2013-06-18 00:54:00
9:13 PM,76.8,61.7,59,29.89,10.0,WSW,5.8,-,N/A,,Scattered Clouds,240,2013-06-18 01:13:00
9:34 PM,73.6,58.6,59,29.91,10.0,West,10.4,-,N/A,,Scattered Clouds,270,2013-06-18 01:34:00
9:54 PM,73.2,58.5,60,29.92,10.0,North,9.2,19.6,N/A,,Mostly Cloudy,350,2013-06-18 01:54:00
10:14 PM,69.3,57.9,67,29.92,10.0,NNE,3.5,-,N/A,,Scattered Clouds,30,2013-06-18 02:14:00
10:34 PM,67.3,59.5,76,29.92,10.0,NE,3.5,-,N/A,,Clear,50,2013-06-18 02:34:00
10:53 PM,66.7,60.1,79,29.91,10.0,Calm,Calm,-,N/A,,Scattered Clouds,0,2013-06-18 02:53:00
11:14 PM,66.2,60.8,83,29.91,10.0,Calm,Calm,-,N/A,,Mostly Cloudy,0,2013-06-18 03:14:00
11:34 PM,66.7,61.9,84,29.95,10.0,West,11.5,-,N/A,Rain,Heavy Rain,270,2013-06-18 03:34:00
11:54 PM,64.4,61.9,92,29.96,7.0,West,3.5,-,N/A,Rain,Rain,260,2013-06-18 03:54:00